• Join FlightAware (Why Join?)
  • Login
  • US Flag GB Flag 
00:26 EDT


 

Airport Tracker/Info


-or-


 

Live Flight TrackerFlight Track Log ✈ FLG3735 ✈ 02-May-2013 ✈ KDTW - KALB

Flight Track Log - Related Links

Times and Time Zones

All times are in EDT time to prevent confusion due to time zone crossing. See the FLG3735 flight status page for this flight to view local times or setup timezone preferences in your user account.

Time Position Orientation Groundspeed Altitude Reporting Facility
EDT Latitude Longitude Course Direction KTS MPH feet Rate Location/Type
22:11 42.2314 -83.3342 82° East 156 180 1,400  Level Cleveland Center
22:12 42.2758 -83.3053 26° Northeast 223 257 2,900 1,680 Climbing Cleveland Center
22:13 42.3289 -83.2625 31° Northeast 268 308 4,700 2,400 Climbing Cleveland Center
22:14 42.2809 -82.9265 71° East  Level FlightAware Approximate
22:14 42.3394 -83.1703 81° East 271 312 7,500  Level Cleveland Center
22:15 42.3095 -82.7857 75° East  Level FlightAware Approximate
22:15 42.3419 -83.0497 88° East 297 342 10,400  Level Cleveland Center
22:16 42.3275 -82.6419 82° East  Level FlightAware Approximate
22:16 42.3467 -82.9319 87° East 307 353 11,800  Level Cleveland Center
22:17 42.3533 -82.8028 86° East 327 376 13,600 1,860 Climbing Cleveland Center
22:18 42.3578 -82.6681 87° East 341 392 15,600 1,680 Climbing Cleveland Center
22:19 42.3644 -82.5306 86° East 354 407 17,000 1,320 Climbing Cleveland Center
22:20 42.3647 -82.3872 90° East 366 421 18,300 1,020 Climbing Cleveland Center
22:21 42.3586 -82.2439 93° East 372 428 19,100 840 Climbing Cleveland Center
22:22 42.3544 -82.0947 92° East 388 447 20,000 900 Climbing Cleveland Center
22:23 42.3481 -81.9400 93° East 409 471 20,900 900 Climbing Cleveland Center
22:24 42.3392 -81.7825 94° East 414 476 21,900 900 Climbing Cleveland Center
22:25 42.3306 -81.6111 94° East 414 476 22,800 900 Climbing Cleveland Center
22:26 42.3256 -81.4539 92° East 414 476 23,700 900 Climbing Cleveland Center
22:27 42.3183 -81.2936 93° East 426 490 24,600 840 Climbing Cleveland Center
22:28 42.3108 -81.1392 94° East 421 484 25,400 600 Climbing Cleveland Center
22:29 42.3011 -80.9733 94° East 428 493 25,900 480 Climbing Cleveland Center
22:30 42.2933 -80.8106 94° East 428 493 26,400 480 Climbing Cleveland Center
22:31 42.2872 -80.6478 93° East 428 493 26,900 420 Climbing Cleveland Center
22:32 42.3017 -80.4989 82° East 440 506 27,300 420 Climbing Cleveland Center
22:33 42.3161 -80.3278 83° East 445 512 27,800 540 Climbing Cleveland Center
22:34 42.3303 -80.1619 83° East 445 512 28,400 540 Climbing Cleveland Center
22:35 42.3483 -79.9961 82° East 445 512 28,900 420 Climbing Cleveland Center
22:36 42.3639 -79.8272 83° East 445 512 29,300 420 Climbing Cleveland Center
22:37 42.3772 -79.6614 84° East 445 512 29,800 540 Climbing Cleveland Center
22:38 42.3944 -79.4756 83° East 445 512 30,400 540 Climbing Cleveland Center
22:39 42.4094 -79.3064 83° East 445 512 30,900 300 Climbing Cleveland Center
22:40 42.4242 -79.1403 83° East 445 512 31,000  Climbing Cleveland Center
22:41 42.4383 -78.9656 84° East 450 518 31,000  Level Cleveland Center
22:42 42.4547 -78.7933 83° East 450 518 31,000  Level Cleveland Center
22:43 42.4683 -78.6156 84° East 461 531 31,000  Level Cleveland Center
22:44 42.4819 -78.4378 84° East 472 543 31,000  Level Cleveland Center
22:45 42.4953 -78.2600 84° East 472 543 31,000  Level Cleveland Center
22:46 42.5081 -78.0819 84° East 472 543 31,000  Level Cleveland Center
22:47 42.5228 -77.9011 84° East 472 543 31,000  Level Cleveland Center
22:48 42.5375 -77.7258 83° East 478 550 31,000  Level Cleveland Center
22:49 42.5475 -77.5478 86° East 478 550 31,000 -480 Level Cleveland Center
22:51 42.5658 -77.2897 84° East 492 566 29,800 -840 Descending Boston Center
22:52 42.5772 -77.1158 85° East 474 545 29,000 -420 Descending Boston Center
22:53 42.5883 -76.9444 85° East 459 528 29,000  Level Boston Center
22:54 42.6011 -76.7733 84° East 459 528 29,000  Level Boston Center
22:55 42.6097 -76.6044 86° East 449 517 29,000  Level Boston Center
22:56 42.6197 -76.4386 85° East 449 517 29,000  Level Boston Center
22:57 42.6317 -76.2756 84° East 439 505 29,000  Level Boston Center
22:58 42.6417 -76.0956 86° East 434 499 29,000  Level Boston Center
22:59 42.6492 -75.9294 86° East 439 505 29,000 -180 Level Boston Center
23:00 42.6561 -75.7661 87° East 439 505 28,700 -660 Descending Boston Center
23:01 42.6672 -75.5944 85° East 439 505 27,700 -1,380 Descending Boston Center
23:02 42.6786 -75.3972 85° East 439 505 25,700 -1,980 Descending Boston Center
23:03 42.6867 -75.2450 86° East 433 498 23,400 -2,340 Descending Boston Center
23:04 42.6925 -75.0983 87° East 406 467 21,100 -2,100 Descending Boston Center
23:05 42.6972 -74.9828 87° East 391 450 19,300 -2,160 Descending Boston Center
23:06 42.7050 -74.8133 86° East 377 434 16,800 -2,400 Descending Boston Center
23:07 42.7139 -74.6781 85° East 359 413 14,500 -2,280 Descending Boston Center
23:08 42.7181 -74.5739 87° East 339 390 12,700 -2,220 Descending Boston Center
23:08 42.7208 -74.5342 85° East 335 386 12,000 -1,500 Descending Boston Center
23:09 42.7250 -74.4242 87° East 339 390 11,000 -900 Descending Boston Center
23:10 42.7392 -74.3256 79° East 314 361 10,400 -1,260 Descending Boston Center
23:11 42.7575 -74.2131 77° East 280 322 8,500 -1,920 Descending Boston Center
23:12 42.7756 -74.1289 74° East 261 300 6,600 -2,100 Descending Boston Center
23:13 42.8083 -74.0306 66° East 254 292 4,400 -1,800 Descending Boston Center
23:14 42.8428 -73.9464 61° Northeast 254 292 3,000 -960 Descending Boston Center
23:15 42.8622 -73.8903 65° Northeast 235 270 2,500 -540 Descending Boston Center